DLH3FP EDDM-LGAV

Flight info

Callsign DLH3FP
Flight time N/A
Altitude 35000
Route VAVOR3S VAVOR M867 RADIZ DCT REKTI DCT NEMEK DCT ELTIB DCT PINDO DCT PIKOS UL607 XORKI
Aircraft A321/M-SDE3FGHIRWY/LB1

Departure

Time 2026-05-05 09:34
Airport Munich Airport (EDDM)

Arrival

Time N/A
Airport Athens Eleftherios Venizelos International Airport (LGAV)
Time Latitude Longitude Altitude Speed Heading
2026-05-05 08:58 48.35497 11.79286 1486 ft 0 kts 263°
2026-05-05 09:21 48.35499 11.79319 1481 ft 4 kts 263°
2026-05-05 09:21 48.35503 11.79359 1471 ft 4 kts 263°
2026-05-05 09:22 48.35505 11.79392 1471 ft 4 kts 258°
2026-05-05 09:22 48.35515 11.79426 1472 ft 4 kts 219°
2026-05-05 09:22 48.35537 11.79439 1471 ft 3 kts 174°
2026-05-05 09:22 48.35560 11.79435 1472 ft 1 kts 173°
2026-05-05 09:23 48.35561 11.79435 1472 ft 0 kts 173°
2026-05-05 09:25 48.35555 11.79436 1473 ft 2 kts 173°
2026-05-05 09:26 48.35522 11.79442 1485 ft 7 kts 173°
2026-05-05 09:26 48.35458 11.79453 1485 ft 11 kts 173°
2026-05-05 09:26 48.35375 11.79467 1476 ft 13 kts 173°
2026-05-05 09:26 48.35280 11.79484 1473 ft 15 kts 173°
2026-05-05 09:27 48.35175 11.79503 1480 ft 16 kts 173°
2026-05-05 09:27 48.35063 11.79523 1478 ft 17 kts 174°
2026-05-05 09:27 48.34945 11.79543 1483 ft 17 kts 173°
2026-05-05 09:27 48.34842 11.79561 1476 ft 14 kts 171°
2026-05-05 09:28 48.34800 11.79669 1479 ft 14 kts 84°
2026-05-05 09:28 48.34812 11.79817 1480 ft 15 kts 83°
2026-05-05 09:28 48.34824 11.79975 1485 ft 16 kts 83°
2026-05-05 09:28 48.34821 11.80139 1481 ft 16 kts 117°
2026-05-05 09:29 48.34735 11.80240 1479 ft 17 kts 170°
2026-05-05 09:29 48.34624 11.80262 1475 ft 13 kts 174°
2026-05-05 09:29 48.34597 11.80266 1484 ft 0 kts 174°
2026-05-05 09:31 48.34595 11.80266 1484 ft 1 kts 174°
2026-05-05 09:31 48.34569 11.80271 1480 ft 7 kts 174°
2026-05-05 09:31 48.34519 11.80279 1473 ft 8 kts 174°
2026-05-05 09:32 48.34469 11.80258 1476 ft 8 kts 237°
2026-05-05 09:32 48.34460 11.80201 1483 ft 7 kts 263°
2026-05-05 09:32 48.34460 11.80194 1485 ft 1 kts 263°
2026-05-05 09:33 48.34460 11.80193 1485 ft 0 kts 263°
2026-05-05 09:33 48.34459 11.80182 1485 ft 4 kts 263°
2026-05-05 09:34 48.34434 11.79852 1474 ft 68 kts 263°
2026-05-05 09:34 48.34353 11.78809 1486 ft 131 kts 263°
2026-05-05 09:34 48.34228 11.77188 1495 ft 179 kts 264°
2026-05-05 09:34 48.34078 11.75353 2200 ft 172 kts 263°
2026-05-05 09:35 48.33939 11.73575 2914 ft 173 kts 263°
2026-05-05 09:35 48.32436 11.70840 3583 ft 203 kts 187°
2026-05-05 09:35 48.30996 11.70805 4010 ft 211 kts 180°
2026-05-05 09:36 48.29503 11.70845 4555 ft 217 kts 174°
2026-05-05 09:36 48.28053 11.71535 5014 ft 227 kts 152°
2026-05-05 09:36 48.26690 11.72935 5263 ft 248 kts 146°
2026-05-05 09:36 48.25207 11.74468 5641 ft 266 kts 147°
2026-05-05 09:37 48.23650 11.76035 6280 ft 272 kts 147°
2026-05-05 09:37 48.22070 11.77615 6974 ft 274 kts 147°
2026-05-05 09:37 48.20473 11.79212 7674 ft 277 kts 147°
2026-05-05 09:37 48.18865 11.80831 8370 ft 280 kts 146°
2026-05-05 09:38 48.17406 11.82791 9060 ft 284 kts 131°
2026-05-05 09:38 48.16143 11.85092 9747 ft 287 kts 130°
2026-05-05 09:38 48.14857 11.87438 10156 ft 301 kts 130°
2026-05-05 09:38 48.13478 11.89941 10282 ft 322 kts 130°
2026-05-05 09:39 48.12010 11.92596 10488 ft 338 kts 130°
2026-05-05 09:39 48.10494 11.95339 10984 ft 344 kts 130°
2026-05-05 09:39 48.08963 11.98115 11562 ft 348 kts 131°
2026-05-05 09:39 48.07398 12.00820 12158 ft 350 kts 137°
2026-05-05 09:40 48.05515 12.03115 12772 ft 350 kts 147°
2026-05-05 09:40 48.03494 12.05171 13363 ft 353 kts 147°
2026-05-05 09:40 48.01456 12.07253 13905 ft 357 kts 147°
2026-05-05 09:40 47.99397 12.09352 14431 ft 360 kts 148°
2026-05-05 09:41 47.97324 12.11465 14983 ft 362 kts 148°
2026-05-05 09:41 47.95237 12.13592 15515 ft 364 kts 148°
2026-05-05 09:41 47.93160 12.15776 16047 ft 368 kts 143°
2026-05-05 09:41 47.91191 12.18246 16566 ft 371 kts 142°
2026-05-05 09:42 47.89217 12.20735 17092 ft 373 kts 142°
2026-05-05 09:42 47.87227 12.23239 17607 ft 376 kts 142°
2026-05-05 09:42 47.85221 12.25759 18123 ft 378 kts 142°
2026-05-05 09:42 47.83199 12.28294 18556 ft 381 kts 142°
2026-05-05 09:43 47.81167 12.30839 18974 ft 384 kts 142°
2026-05-05 09:43 47.79116 12.33405 19405 ft 386 kts 142°
2026-05-05 09:43 47.77054 12.35983 19812 ft 389 kts 142°
2026-05-05 09:43 47.74973 12.38582 20199 ft 392 kts 142°
2026-05-05 09:44 47.72878 12.41198 20611 ft 395 kts 142°
2026-05-05 09:44 47.70771 12.43823 21021 ft 397 kts 142°
2026-05-05 09:44 47.68641 12.46460 21428 ft 400 kts 142°
2026-05-05 09:44 47.67946 12.47316 21557 ft 401 kts 142°